Home > Weather > Riverview > Past weeks

Flag for Canada Past Weather in Riverview, New Brunswick, Canada — Yesterday and Last 2 Weeks

Now
81 °F

Broken clouds.


Feels Like: 83 °F
Forecast: N/A
Wind: 10 mph from Southeast

Location: Moncton

Current Time: Jul 27, 2016 at 6:20:07 PM

Latest Report: Jul 27, 2016 at 6:00 PM


Visibility: 15 mi

Pressure: 29.83 "Hg

Humidity: 66%

Dew Point: 68 °F

Location of RiverviewLocation

Past Weather in Riverview — Graph

°F

Riverview Temperature Yesterday

Maximum temperature yesterday: 75 °F (at 2:00 PM)
Minimum temperature yesterday: 63 °F (at 6:00 AM)
Average temperature yesterday: 69 °F

High & Low Weather Summary for the Past Weeks

 TemperatureHumidityPressure
High84 °F (Jul 14, 3:00 PM)100% (Jul 13, 1:00 AM)30.15 "Hg (Jul 13, 1:00 AM)
Low52 °F (Jul 20, 5:00 AM)40% (Jul 13, 5:00 PM)29.59 "Hg (Jul 23, 1:00 AM)
Average69 °F77%29.86 "Hg
* Reported Jul 12 5:00 PM — Jul 27 5:00 PM, Riverview, Weather by CustomWeather, © 2016

Note: Actual official high and low records may vary slightly from our data, if they occured in-between our weather recording intervals... More about our weather records

Advertising

Riverview Weather History for the Previous 24 Hours

Scroll right to see more
 ConditionsComfort  
Time TempWeatherWind HumidityBarometerVisibility
5:00 PM
Wed, Jul 27
81 °FPartly sunny.10 mph62%29.82 "Hg15 mi
4:00 PM82 °FBroken clouds.5 mph58%29.83 "Hg15 mi
3:00 PM82 °FBroken clouds.6 mph55%29.83 "Hg15 mi
2:00 PM81 °FBroken clouds.6 mph62%29.84 "Hg15 mi
1:00 PM82 °FPartly sunny.6 mph66%29.85 "Hg15 mi
12:00 PM77 °FScattered clouds.3 mph65%29.85 "Hg15 mi
11:00 AM75 °FScattered clouds.3 mph69%29.85 "Hg15 mi
10:00 AM73 °FPassing clouds.5 mph83%29.85 "Hg15 mi
9:00 AM70 °FPassing clouds.6 mph88%29.85 "Hg15 mi
8:00 AM66 °FFog.7 mph100%29.84 "Hg2 mi
7:51 AM66 °FFog.6 mph100%29.83 "Hg1 mi
7:00 AM64 °FFog.7 mph100%29.83 "Hg0 mi
6:00 AM64 °FFog.6 mph100%29.81 "Hg0 mi
5:00 AM66 °FFog.6 mph94%29.80 "Hg0 mi
4:00 AM66 °FMild.9 mph100%29.79 "Hg1 mi
3:52 AM66 °FFog.8 mph100%29.79 "Hg1 mi
3:00 AM66 °FPassing clouds.8 mph100%29.79 "Hg12 mi
2:56 AM66 °FPassing clouds.9 mph100%29.79 "Hg12 mi
2:00 AM68 °FPassing clouds.8 mph94%29.79 "Hg15 mi
1:00 AM68 °FLight rain. Passing clouds.8 mph94%29.78 "Hg12 mi
12:00 AM64 °FPassing clouds.8 mph100%29.77 "Hg15 mi
11:00 PM
Tue, Jul 26
66 °FPassing clouds.6 mph94%29.76 "Hg15 mi
10:00 PM70 °FPassing clouds.2 mph88%29.76 "Hg15 mi
9:00 PM72 °FScattered clouds.3 mph83%29.74 "Hg15 mi
8:00 PM75 °FScattered clouds.3 mph74%29.72 "Hg15 mi
7:00 PM75 °FBroken clouds.3 mph74%29.71 "Hg15 mi
6:00 PM75 °FPartly sunny.8 mph78%29.71 "Hg15 mi
Weather by CustomWeather, © 2016

See weather overviewHow to use our weather pages